Regional Weather Roundup
Issued by NWS

Home | Current Version | Previous Version | Text Only | Print | Product List | Glossary Off
Versions: 1 2 3 4 5 6 7 8 9 10 11 12 13 14 15 16 17 18 19 20 21 22 23 24 25 26 27 28 29 30 31 32 33 34 35 36 37 38 39 40 41 42 43 44 45 46 47 48 49 50

000
ASUS43 KOAX 130110
RWRNE

WEATHER ROUNDUP FOR NEBRASKA
NATIONAL WEATHER SERVICE OMAHA NE
700 PM CST FRI FEB 12 2016

NOTES: SATELLITE DATA IS BEING USED TO AUGMENT CLOUD COVER ABOVE
       12000 FEET.
       "FAIR" INDICATES FEW OR NO CLOUDS BELOW 12,000 FEET WITH NO
       SIGNIFICANT WEATHER AND/OR OBSTRUCTIONS TO VISIBILITY.

  * THESE STATIONS DO NOT REPORT WEATHER SUCH AS RAIN...SNOW OR FOG.

NEZ001>004-019>022-054>056-130200-
NEBRASKA PANHANDLE

CITY           SKY/WX    TMP DP  RH WIND       PRES   REMARKS
SCOTTSBLUFF    CLOUDY    34  30  85 SE15      30.30R WCI  24
ALLIANCE       CLOUDY    33  29  85 SE10      30.31R WCI  25
CHADRON        CLOUDY    34  27  75 SE6       30.32S WCI  29
KIMBALL        CLOUDY    32  32  99 SE13      30.28R FOG     WCI  22
SIDNEY         FOG       30  30 100 SE13      30.32R VSB 1/2 WCI  20
$$

NEZ057>060-069>072-079>082-130200-
SOUTHWEST NEBRASKA

CITY           SKY/WX    TMP DP  RH WIND       PRES   REMARKS
NORTH PLATTE   CLOUDY    29  25  85 E8        30.43R WCI  21
IMPERIAL       CLOUDY    33  29  85 SE9       30.37S WCI  25
LEXINGTON      CLOUDY    27  22  81 E9        30.48R WCI  18
MCCOOK         CLOUDY    32  28  85 E12       30.43R WCI  23
OGALLALA       CLOUDY    33  29  85 E7        30.37R WCI  27
$$

NEZ005>010-023>029-035>040-094-130200-
NORTH CENTRAL NEBRASKA

CITY           SKY/WX    TMP DP  RH WIND       PRES   REMARKS
VALENTINE      CLOUDY    24  15  68 E8        30.46R WCI  15
AINSWORTH      CLOUDY    23  16  74 E9        30.47R WCI  13
BROKEN BOW     CLOUDY    25  18  74 E9        30.46R WCI  15
O`NEILL        CLOUDY    17   9  71 NE9       30.54R WCI   6
ORD            CLOUDY    21  14  74 NE7       30.51R WCI  12
THEDFORD       CLOUDY    28  22  81 E8        30.43S WCI  19
$$

NEZ041-046>049-061>064-073>077-083>087-130200-
SOUTH CENTRAL NEBRASKA

CITY           SKY/WX    TMP DP  RH WIND       PRES   REMARKS
GRAND ISLAND   CLOUDY    20  13  74 NE14      30.53R WCI   7
AURORA         CLOUDY    21  14  74 NE10      30.54R WCI  10
HASTINGS       CLOUDY    23  14  68 NE10      30.51R WCI  12
HEBRON         CLOUDY    25  17  72 NE12      30.55R WCI  14
HOLDREGE       CLOUDY    25  20  79 E9        30.48R WCI  16
KEARNEY *      CLOUDY    25  18  74 E13       30.49S WCI  13
YORK           CLOUDY    19  14  79 NE12      30.55R WCI   7
$$

NEZ011>018-030>034-042>045-130200-
NORTHEAST NEBRASKA

CITY           SKY/WX    TMP DP  RH WIND       PRES   REMARKS
NORFOLK          N/A     15   5  64 N10       30.58R WCI   2
ALBION         CLOUDY    17  10  75 NE10      30.55R WCI   4
BLAIR          CLOUDY    13   4  65 N9        30.58R WCI   1
COLUMBUS *     CLOUDY    16   1  53 NE6       30.59R WCI   7
FREMONT        CLOUDY    14   5  67 N5        30.60R WCI   6
TEKAMAH        PTCLDY    11   3  70 N9        30.62R WCI  -2
WAYNE          CLOUDY    11   4  73 N6        30.60R WCI   1
$$

NEZ050>053-065>068-078-088>093-130200-
SOUTHEAST NEBRASKA

CITY           SKY/WX    TMP DP  RH WIND       PRES   REMARKS
LINCOLN        CLOUDY    18   9  68 N12       30.61R WCI   5
OMAHA EPPLEY   CLOUDY    15   4  61 N12       30.62R WCI   2
BEATRICE       CLOUDY    22  15  74 NE10      30.56R WCI  11
FALLS CITY     CLEAR     21   9  59 NE12      30.57R WCI   9
NEBRASKA CITY  PTCLDY    19   4  53 N9        30.58R WCI   8
PLATTSMOUTH    PTCLDY    16   7  66 N6        30.59R WCI   8
$$

NEZ044-045-051>053-067-130200-
OMAHA AREA

CITY           SKY/WX    TMP DP  RH WIND       PRES   REMARKS
OMAHA EPPLEY   CLOUDY    15   4  61 N12       30.62R WCI   2
BLAIR          CLOUDY    13   4  65 N9        30.58R WCI   1
FREMONT        CLOUDY    14   5  67 N5        30.60R WCI   6
MILLARD        CLOUDY    16   2  54 N5        30.61R WCI   9
OFFUTT AFB     CLOUDY    16   2  53 N7        30.60R WCI   6
PLATTSMOUTH    PTCLDY    16   7  66 N6        30.59R WCI   8
WAHOO          FAIR      15   8  74 N9        30.60R WCI   3
$$



USA.gov is the U.S. government's official web portal to all federal, state and local government web resources and services.